SM4IVE-5 Weather Reports


Display with metric or nautical units.
time (UTC)temp
F
wind
direction
speed
MPH
gust
MPH
rain 1hr
in
rain 24hr
in
rain mn
in
humidity
%
barometer
mb
20260505052829 43 294 4.0 11.0 0.00 0.04 0.00 70 1006.6
20260505052336 43 287 4.0 10.0 0.00 0.04 0.00 71 1006.6
20260505051826 43 277 6.0 10.0 0.00 0.04 0.00 69 1006.5
20260505051325 43 296 4.0 11.0 0.00 0.12 0.00 69 1006.5
20260505050825 43 276 7.0 11.0 0.00 0.12 0.00 70 1006.4
20260505050325 43 296 5.0 11.0 0.00 0.12 0.00 70 1006.4
20260505041328 42 282 4.0 10.0 0.00 0.28 0.00 72 1006.0
20260505040836 41 281 5.0 10.0 0.00 0.28 0.00 73 1006.1
20260505040324 41 289 3.0 9.0 0.00 0.28 0.00 74 1006.1
20260505035831 41 267 5.0 9.0 0.00 0.28 0.00 74 1006.1
20260505035352 41 290 3.0 5.0 0.00 0.28 0.00 75 1006.0
20260505034838 41 304 3.0 7.0 0.00 0.28 0.00 75 1006.0
20260505034346 41 295 3.0 7.0 0.00 0.28 0.00 75 1005.9
20260505033832 41 285 3.0 8.0 0.00 0.28 0.00 75 1005.9
20260505033332 41 304 3.0 8.0 0.00 0.28 0.00 74 1006.0
20260505032838 41 285 4.0 6.0 0.00 0.28 0.00 74 1005.9
20260505032325 42 294 3.0 6.0 0.00 0.28 0.00 74 1005.9
20260505031831 42 283 2.0 9.0 0.00 0.28 0.00 74 1005.9
20260505031338 42 292 4.0 10.0 0.00 0.35 0.00 74 1005.9
20260505030825 42 292 4.0 10.0 0.00 0.35 0.00 74 1005.9
20260505030332 42 304 5.0 12.0 0.00 0.35 0.00 74 1005.8
20260505025837 42 254 5.0 13.0 0.00 0.35 0.00 75 1005.7
20260505025325 42 307 5.0 13.0 0.00 0.35 0.00 75 1005.6
20260505024831 43 290 4.0 9.0 0.00 0.35 0.00 75 1005.6
20260505024331 43 304 6.0 10.0 0.00 0.35 0.00 75 1005.5
20260505023832 43 319 4.0 11.0 0.00 0.35 0.00 75 1005.5
20260505023331 43 301 5.0 12.0 0.00 0.35 0.00 75 1005.5
20260505022831 44 310 5.0 13.0 0.00 0.35 0.00 76 1005.4
20260505022331 44 300 4.0 13.0 0.00 0.35 0.00 76 1005.3
20260505021831 44 271 6.0 11.0 0.00 0.35 0.00 76 1005.3
20260505021350 44 279 4.0 10.0 0.00 0.35 0.00 77 1005.3
20260505020850 44 299 4.0 9.0 0.00 0.35 0.00 77 1005.2
20260505020329 44 297 4.0 12.0 0.00 0.35 0.00 77 1005.2
20260505015829 45 294 6.0 12.0 0.00 0.35 0.00 77 1005.0
20260505015337 45 294 4.0 10.0 0.00 0.35 0.00 78 1005.1
20260505014825 45 286 4.0 11.0 0.00 0.35 0.00 78 1005.0
20260505014331 45 283 5.0 12.0 0.00 0.35 0.00 78 1004.9
20260505013839 45 288 7.0 12.0 0.00 0.35 0.00 78 1004.9
20260505013328 46 294 5.0 12.0 0.00 0.35 0.00 79 1004.8
20260505012829 46 292 5.0 12.0 0.00 0.35 0.00 79 1004.9
20260505012349 46 281 6.0 11.0 0.00 0.35 0.00 79 1004.7
20260505011836 46 308 6.0 11.0 0.00 0.35 0.00 79 1004.7
20260505011325 46 276 6.0 11.0 0.00 0.35 0.00 80 1004.7
20260505010832 46 290 5.0 10.0 0.00 0.35 0.00 80 1004.6
20260505010340 46 288 4.0 12.0 0.00 0.35 0.00 79 1004.7
20260505005828 47 276 4.0 10.0 0.00 0.35 0.00 79 1004.5
20260505005336 47 284 5.0 9.0 0.00 0.35 0.00 79 1004.5
20260505004824 47 269 3.0 11.0 0.00 0.35 0.00 79 1004.4
20260505004351 47 281 5.0 11.0 0.00 0.35 0.00 78 1004.4
20260505003828 47 281 5.0 11.0 0.00 0.35 0.00 78 1004.4
20260505003328 47 283 4.0 10.0 0.00 0.35 0.00 78 1004.3
20260505002829 47 271 4.0 16.0 0.00 0.35 0.00 78 1004.3
20260505002329 48 269 6.0 16.0 0.00 0.35 0.00 77 1004.3
20260505001830 48 281 4.0 12.0 0.00 0.35 0.00 77 1004.2
20260505001331 48 286 3.0 19.0 0.00 0.35 0.00 77 1004.2
20260505000839 48 275 6.0 19.0 0.00 0.35 0.00 77 1004.1
20260505000328 48 294 3.0 11.0 0.00 0.35 0.00 76 1004.1
20260504235828 48 309 4.0 11.0 0.00 0.35 0.00 76 1004.1
20260504235328 48 296 3.0 10.0 0.00 0.35 0.00 76 1004.1
20260504234837 48 279 5.0 12.0 0.00 0.35 0.00 75 1004.1
20260504234325 48 286 6.0 15.0 0.00 0.35 0.00 75 1004.0
20260504233854 49 254 3.0 15.0 0.00 0.35 0.00 74 1004.0
20260504233339 49 292 4.0 14.0 0.00 0.35 0.00 74 1004.0
20260504232828 49 292 2.0 13.0 0.00 0.35 0.00 73 1004.0
20260504232328 49 264 4.0 14.0 0.00 0.35 0.00 73 1004.0
20260504231829 49 346 5.0 15.0 0.00 0.35 0.00 72 1004.1
20260504231331 49 299 3.0 15.0 0.00 0.35 0.00 71 1004.1
20260504230851 49 95 3.0 11.0 0.00 0.35 0.00 70 1003.9
20260504230331 49 265 4.0 11.0 0.00 0.35 0.00 70 1003.9
20260504225830 49 264 4.0 12.0 0.00 0.35 0.00 69 1003.8
20260504225339 49 275 4.0 10.0 0.00 0.35 0.00 69 1003.9
20260504224828 49 305 4.0 10.0 0.00 0.35 0.00 67 1003.9
20260504224337 49 284 3.0 7.0 0.00 0.35 0.00 67 1003.9
20260504223824 49 329 2.0 9.0 0.00 0.35 0.00 66 1003.9
20260504223333 49 298 3.0 12.0 0.00 0.35 0.00 65 1003.9
20260504222900 49 248 3.0 12.0 0.00 0.35 0.00 64 1003.9
20260504222328 49 244 5.0 12.0 0.00 0.35 0.00 64 1004.0
20260504221828 49 263 3.0 10.0 0.00 0.35 0.00 63 1003.9
20260504221328 49 295 4.0 10.0 0.00 0.35 0.07 62 1003.9
20260504220835 49 256 3.0 9.0 0.00 0.35 0.07 63 1003.9
20260504220402 49 287 3.0 9.0 0.00 0.35 0.07 61 1003.9
20260504215828 50 329 2.0 5.0 0.00 0.35 0.07 60 1003.9
20260504215326 50 344 2.0 8.0 0.00 0.35 0.07 59 1003.9
20260504214827 50 342 2.0 8.0 0.00 0.35 0.07 59 1003.9
20260504214345 50 346 2.0 9.0 0.00 0.35 0.07 57 1004.0
20260504213851 50 281 4.0 9.0 0.00 0.35 0.07 57 1003.9
20260504213347 50 280 3.0 12.0 0.00 0.35 0.07 57 1003.9
20260504212852 51 234 4.0 13.0 0.00 0.35 0.07 55 1003.9
20260504212337 51 279 4.0 13.0 0.00 0.35 0.07 55 1003.9
20260504211824 51 179 4.0 12.0 0.00 0.35 0.07 54 1004.0
20260504211352 51 336 4.0 12.0 0.00 0.35 0.07 54 1004.0
20260504210832 51 325 4.0 15.0 0.00 0.35 0.07 53 1004.1
20260504210331 51 355 2.0 15.0 0.00 0.35 0.07 54 1004.0
20260504205831 51 230 2.0 10.0 0.00 0.35 0.07 53 1004.1
20260504205331 51 252 2.0 11.0 0.00 0.35 0.07 52 1004.1
20260504204859 51 103 2.0 11.0 0.00 0.35 0.07 52 1004.1
20260504204326 52 280 3.0 14.0 0.00 0.35 0.07 51 1004.0
20260504203832 52 210 3.0 14.0 0.00 0.35 0.07 52 1004.1
20260504203332 51 141 3.0 9.0 0.00 0.35 0.07 52 1004.2
20260504202830 51 191 2.0 8.0 0.00 0.35 0.07 52 1004.2
20260504202331 51 5 3.0 7.0 0.00 0.35 0.07 51 1004.2
20260504201832 51 331 2.0 9.0 0.00 0.35 0.07 52 1004.3
20260504201340 51 206 3.0 9.0 0.00 0.35 0.07 52 1004.2
20260504200829 52 181 3.0 9.0 0.00 0.35 0.07 52 1004.3
20260504200330 52 360 2.0 8.0 0.00 0.35 0.07 53 1004.2
20260504195831 52 271 3.0 9.0 0.00 0.35 0.07 53 1004.3
20260504195331 52 287 3.0 9.0 0.00 0.35 0.07 53 1004.3
20260504194831 52 306 2.0 7.0 0.00 0.35 0.07 53 1004.4
20260504194331 52 224 1.0 4.0 0.00 0.35 0.07 53 1004.4
20260504193831 52 261 1.0 7.0 0.00 0.35 0.07 53 1004.4
20260504193331 52 299 2.0 7.0 0.00 0.35 0.07 52 1004.4
20260504192832 53 291 3.0 10.0 0.00 0.35 0.07 52 1004.3
20260504192339 53 281 1.0 10.0 0.00 0.35 0.07 52 1004.4
20260504191829 53 298 2.0 11.0 0.00 0.35 0.07 51 1004.3
20260504191328 53 288 4.0 9.0 0.00 0.35 0.07 50 1004.3
20260504190829 54 305 2.0 9.0 0.00 0.35 0.07 52 1004.3
20260504190329 54 264 2.0 9.0 0.00 0.35 0.07 49 1004.3
20260504185849 54 287 2.0 8.0 0.00 0.35 0.07 50 1004.2
20260504185329 54 90 2.0 11.0 0.00 0.35 0.07 49 1004.2
20260504184829 54 218 4.0 10.0 0.00 0.35 0.07 48 1004.4
20260504184330 54 241 3.0 10.0 0.00 0.35 0.07 48 1004.3
20260504183831 55 287 3.0 12.0 0.00 0.35 0.07 48 1004.3
20260504183339 55 214 3.0 11.0 0.00 0.35 0.07 48 1004.4
20260504182827 55 215 3.0 12.0 0.00 0.35 0.07 48 1004.3
20260504182337 55 300 4.0 12.0 0.00 0.35 0.07 46 1004.3
20260504181824 56 294 5.0 13.0 0.00 0.35 0.07 48 1004.3
20260504181332 56 276 4.0 12.0 0.00 0.35 0.07 46 1004.2
20260504180831 56 346 4.0 10.0 0.00 0.35 0.07 48 1004.3
20260504180331 56 277 3.0 18.0 0.00 0.35 0.07 46 1004.2
20260504175850 57 272 6.0 13.0 0.00 0.35 0.07 46 1004.2
20260504175329 57 263 4.0 12.0 0.00 0.35 0.07 47 1004.2
20260504174829 57 306 4.0 12.0 0.00 0.35 0.07 47 1004.1
20260504174328 57 257 5.0 13.0 0.00 0.35 0.07 45 1004.1
20260504173829 57 203 4.0 13.0 0.00 0.35 0.07 44 1004.1
20260504173351 58 281 6.0 13.0 0.00 0.35 0.07 44 1004.1
20260504172828 58 276 5.0 12.0 0.00 0.35 0.07 44 1004.1
20260504172329 58 267 4.0 12.0 0.00 0.35 0.07 43 1004.0
20260504171830 58 303 4.0 14.0 0.00 0.35 0.07 44 1003.9
20260504171331 58 291 6.0 14.0 0.00 0.35 0.07 43 1003.9
20260504170833 58 274 7.0 14.0 0.00 0.35 0.07 42 1003.8
20260504170340 59 325 5.0 19.0 0.00 0.35 0.07 44 1003.9
20260504160356 59 298 7.0 16.0 0.00 0.35 0.07 53 1003.8
20260504150836 59 275 7.0 17.0 0.00 0.35 0.07 59 1003.8
20260504150324 60 275 4.0 17.0 0.00 0.35 0.07 60 1003.9
20260504141329 59 254 6.0 17.0 0.00 0.35 0.07 59 1003.9
20260504140829 59 278 4.0 16.0 0.00 0.35 0.07 60 1003.8
20260504140330 59 270 5.0 16.0 0.00 0.35 0.07 61 1003.8
20260504130326 58 304 9.0 18.0 0.00 0.35 0.07 68 1003.8
20260504110341 57 109 7.0 15.0 0.00 0.35 0.07 65 1003.6
20260504100403 57 284 10.0 16.0 0.00 0.35 0.07 68 1003.6
20260504081850 51 302 2.0 4.0 0.00 0.35 0.07 96 1003.7
20260504081330 51 284 2.0 5.0 0.00 0.39 0.07 95 1003.7
20260504080831 51 292 2.0 5.0 0.00 0.39 0.07 95 1003.8
20260504080340 50 286 2.0 4.0 0.00 0.39 0.07 96 1003.8
20260504070329 50 319 5.0 7.0 0.00 0.43 0.07 96 1003.9